Flag for U.S.A. Weather past 2 weeks in Berkeley, California, U.S.A.

Now
70 °F

Scattered clouds.


Feels Like: 75 °F
Forecast: 60 / 77 °F
Wind: 14 mph from Northwest

Location: Metro Oakland International Airport

Current Time: Jul 31, 2014 at 4:42:02 PM

Latest Report: Jul 31, 2014 at 3:53 PM


Visibility: 10 mi

Pressure: 29.92 "Hg

Humidity: 64%

Dew point: 57 °F

Location of BerkeleyLocation

Historic Weather in Berkeley — Graph

°F

Berkeley temperature yesterday

Maximum temperature yesterday: 72 °F (at 2:53 PM)
Minimum temperature yesterday: 60 °F (at 12:53 AM)
Average temperature yesterday: 64 °F

Past Weeks' High & Low Weather Summary

 TemperatureHumidityPressure
High90 °F (Jul 25, 1:53 PM)87% (Jul 31, 12:53 AM)30.15 "Hg (Jul 31, 12:53 AM)
Low59 °F (Jul 31, 12:53 AM)23% (Jul 25, 12:53 PM)29.83 "Hg (Jul 25, 3:53 AM)
Average67 °F71%29.98 "Hg
* Reported Jul 16 2:53 PM — Jul 31 2:53 PM, Berkeley, Weather by CustomWeather, © 2014

Note: Actual official high and low records may vary slightly from our data, if they occured in-between our weather recording intervals... More about our weather records

Advertising

Berkeley weather history for previous 24 hours

 ConditionsComfort  
Time TempWeatherWind HumidityBarometerVisibility
2:53 PM
Jul 31
71 °FScattered clouds.15 mph59%29.94 "Hg10 mi
1:53 PM70 °FScattered clouds.14 mph64%29.95 "Hg10 mi
12:53 PM68 °FScattered clouds.13 mph65%29.97 "Hg10 mi
11:53 AM66 °FScattered clouds.9 mph70%29.98 "Hg10 mi
10:53 AM66 °FLow clouds.6 mph73%29.99 "Hg10 mi
9:53 AM63 °FLow clouds.5 mph78%29.99 "Hg10 mi
8:53 AM61 °FLow clouds.3 mph83%30.00 "Hg10 mi
7:53 AM61 °FLow clouds.5 mph81%29.98 "Hg10 mi
6:53 AM61 °FLow clouds.3 mph83%29.97 "Hg10 mi
5:53 AM60 °FLow clouds.6 mph83%29.96 "Hg10 mi
4:53 AM60 °FLow clouds.5 mph83%29.96 "Hg10 mi
3:53 AM59 °FLow clouds.No wind87%29.96 "Hg10 mi
2:53 AM60 °FLow clouds.9 mph83%29.97 "Hg10 mi
1:53 AM60 °FLow clouds.9 mph86%29.97 "Hg10 mi
12:53 AM59 °FLow clouds.9 mph87%29.97 "Hg10 mi
11:53 PM
Jul 30
60 °FLow clouds.6 mph86%29.96 "Hg10 mi
10:53 PM60 °FLow clouds.10 mph83%29.98 "Hg10 mi
9:53 PM61 °FPassing clouds.13 mph81%29.98 "Hg10 mi
8:53 PM61 °FPassing clouds.14 mph81%29.97 "Hg10 mi
7:53 PM64 °FPassing clouds.13 mph75%29.96 "Hg10 mi
6:53 PM66 °FPassing clouds.17 mph70%29.95 "Hg10 mi
5:53 PM68 °FPassing clouds.14 mph65%29.95 "Hg10 mi
4:53 PM70 °FPassing clouds.16 mph61%29.96 "Hg10 mi
Weather by CustomWeather, © 2014

See weather overviewHow to use our weather pages